GW1216 Weather Reports


time (UTC)temp
C
wind
direction
speed
KPH
gust
KPH
rain 1hr
cm
rain 24hr
cm
rain mn
cm
humidity
%
barometer
mb
20260502170214 8 41 9.7 25.7 0.00 0.00 0.00 31 1028.3
20260502164201 9 337 9.7 11.3 0.00 0.00 0.00 32 1028.1
20260502163656 9 51 3.2 16.1 0.00 0.00 0.00 30 1028.3
20260502163153 9 84 4.8 11.3 0.00 0.00 0.00 32 1027.9
20260502162650 8 159 6.4 11.3 0.00 0.00 0.00 31 1027.9
20260502162147 8 230 8.0 25.7 0.00 0.00 0.00 32 1028.2
20260502161644 7 20 3.2 14.5 0.00 0.00 0.00 35 1028.3
20260502161141 8 63 4.8 9.7 0.00 0.00 0.00 33 1028.2
20260502160639 7 93 4.8 14.5 0.00 0.00 0.00 35 1028.3
20260502160138 7 175 6.4 11.3 0.00 0.00 0.00 33 1028.2
20260502152051 6 52 8.0 11.3 0.00 0.00 0.00 35 1028.3
20260502151549 7 31 4.8 8.0 0.00 0.00 0.00 37 1028.3
20260502151046 6 115 6.4 19.3 0.00 0.00 0.00 39 1028.1
20260502150543 7 78 12.9 16.1 0.00 0.00 0.00 34 1028.1
20260502130428 0 79 9.7 14.5 0.00 0.00 0.00 61 1027.3
20260502123411 -1 77 11.3 12.9 0.00 0.00 0.00 63 1027.3
20260502122908 -1 74 9.7 12.9 0.00 0.00 0.00 62 1026.9
20260502122404 -1 74 9.7 12.9 0.00 0.00 0.00 64 1026.6
20260502121903 -2 68 8.0 9.7 0.00 0.00 0.00 67 1026.9
20260502121359 -3 60 8.0 12.9 0.00 0.00 0.00 70 1027.0
20260502120857 -3 65 9.7 11.3 0.00 0.00 0.00 69 1026.9
20260502120353 -2 59 9.7 11.3 0.00 0.00 0.00 66 1026.7
20260502115850 -2 62 9.7 9.7 0.00 0.00 0.00 65 1026.7
20260502115347 -2 49 11.3 12.9 0.00 0.00 0.00 63 1026.9
20260502114843 0 69 6.4 9.7 0.00 0.00 0.00 60 1026.5
20260502114340 -1 65 8.0 8.0 0.00 0.00 0.00 61 1026.3
20260502113837 -1 57 8.0 9.7 0.00 0.00 0.00 62 1026.5
20260502113335 -1 66 4.8 6.4 0.00 0.00 0.00 63 1026.5
20260502112833 -1 68 6.4 8.0 0.00 0.00 0.00 64 1026.5
20260502112330 -1 70 3.2 8.0 0.00 0.00 0.00 65 1026.5
20260502111828 -2 75 6.4 6.4 0.00 0.00 0.00 68 1026.6
20260502111325 -1 80 6.4 8.0 0.00 0.00 0.00 66 1026.6
20260502110823 -2 85 8.0 11.3 0.00 0.00 0.00 70 1026.9
20260502110320 -2 57 8.0 9.7 0.00 0.00 0.00 71 1026.6
20260502105818 -3 42 6.4 11.3 0.00 0.00 0.00 71 1026.7
20260502105314 -3 45 9.7 11.3 0.00 0.00 0.00 69 1026.5
20260502104812 -2 71 9.7 14.5 0.00 0.00 0.00 68 1026.2
20260502104309 -1 50 9.7 14.5 0.00 0.00 0.00 68 1026.5
20260502103806 -1 63 11.3 14.5 0.00 0.00 0.00 66 1026.6
20260502103304 -1 43 11.3 14.5 0.00 0.00 0.00 67 1026.5
20260502102801 -1 38 12.9 14.5 0.00 0.00 0.00 66 1026.7
20260502102257 -2 63 14.5 14.5 0.00 0.00 0.00 69 1026.6
20260502101755 -1 70 9.7 12.9 0.00 0.00 0.00 66 1026.3
20260502101253 -1 83 12.9 12.9 0.00 0.00 0.00 64 1026.5
20260502100751 -1 68 12.9 12.9 0.00 0.00 0.00 66 1026.6
20260502100249 0 70 8.0 11.3 0.00 0.00 0.00 64 1026.3
20260502091224 -1 80 8.0 9.7 0.00 0.00 0.00 68 1026.1
20260502090721 -1 91 8.0 9.7 0.00 0.00 0.00 69 1026.1
20260502090218 -1 85 8.0 9.7 0.00 0.00 0.00 69 1026.1
20260502071113 -1 108 4.8 8.0 0.00 0.00 0.00 75 1025.8
20260502070611 -1 97 4.8 6.4 0.00 0.00 0.00 75 1025.7
20260502070109 -2 108 3.2 4.8 0.00 0.00 0.00 74 1025.7
20260502065607 -1 88 4.8 11.3 0.00 0.00 0.00 73 1025.8
20260502065104 0 66 11.3 16.1 0.00 0.00 0.00 70 1025.8
20260502064603 0 62 11.3 14.5 0.00 0.00 0.00 70 1025.5
20260502064100 0 70 11.3 17.7 0.00 0.00 0.00 70 1025.7
20260502063557 0 65 14.5 19.3 0.00 0.00 0.00 70 1025.7
20260502063055 0 60 16.1 17.7 0.00 0.00 0.00 71 1025.4
20260502062552 0 54 14.5 14.5 0.00 0.00 0.00 68 1025.5
20260502062050 0 60 14.5 17.7 0.00 0.00 0.00 67 1025.7
20260502061547 0 79 17.7 22.5 0.00 0.00 0.00 68 1025.8
20260502061044 0 89 8.0 19.3 0.00 0.00 0.00 69 1025.7
20260502060539 0 95 11.3 17.7 0.00 0.00 0.00 70 1025.7
20260502060037 0 87 9.7 17.7 0.00 0.00 0.00 69 1025.7
20260502055534 0 96 9.7 20.9 0.00 0.00 0.00 70 1025.7
20260502055033 0 103 19.3 22.5 0.00 0.00 0.00 71 1025.5
20260502054531 0 73 11.3 14.5 0.00 0.00 0.00 71 1025.5
20260502054027 0 84 17.7 22.5 0.00 0.00 0.00 71 1025.4
20260502053524 0 87 11.3 19.3 0.00 0.00 0.00 73 1025.7
20260502053022 0 93 14.5 17.7 0.00 0.00 0.00 74 1025.4
20260502052520 0 78 8.0 14.5 0.00 0.00 0.00 75 1025.4
20260502052018 0 75 8.0 17.7 0.00 0.00 0.00 75 1025.1
20260502051516 0 79 8.0 17.7 0.00 0.00 0.00 77 1025.1
20260502051014 0 104 8.0 9.7 0.00 0.00 0.00 80 1025.4
20260502050510 0 96 4.8 11.3 0.00 0.00 0.00 80 1025.1
20260502050007 0 84 8.0 11.3 0.00 0.00 0.00 79 1025.4
20260502045503 0 86 6.4 8.0 0.00 0.00 0.00 78 1025.4
20260502045001 0 89 3.2 8.0 0.00 0.00 0.00 77 1025.7
20260502044456 0 53 4.8 6.4 0.00 0.00 0.00 77 1025.4
20260502043953 0 29 4.8 6.4 0.00 0.00 0.00 77 1025.5
20260502043451 0 347 0.0 4.8 0.00 0.00 0.00 76 1025.4
20260502042950 1 115 3.2 6.4 0.00 0.00 0.00 75 1025.3
20260502042447 1 84 8.0 14.5 0.00 0.00 0.00 76 1025.3
20260502041945 0 84 12.9 12.9 0.00 0.00 0.00 77 1025.5
20260502041443 0 89 6.4 11.3 0.00 0.00 0.00 77 1025.4
20260502040939 0 76 8.0 9.7 0.00 0.00 0.00 77 1025.3
20260502040436 0 75 9.7 11.3 0.00 0.00 0.00 77 1025.1
20260502035932 1 63 9.7 12.9 0.00 0.00 0.00 76 1025.3
20260502035428 0 78 11.3 11.3 0.00 0.00 0.00 77 1025.1
20260502034926 0 82 8.0 9.7 0.00 0.00 0.00 78 1025.1
20260502034425 0 77 8.0 11.3 0.00 0.00 0.00 78 1024.9
20260502033923 0 93 8.0 9.7 0.00 0.00 0.00 78 1025.0
20260502033420 0 107 3.2 11.3 0.00 0.00 0.00 77 1024.9
20260502032917 0 66 6.4 8.0 0.00 0.00 0.00 77 1024.9
20260502032413 0 111 4.8 11.3 0.00 0.00 0.00 77 1025.0
20260502031910 0 64 9.7 11.3 0.00 0.00 0.00 78 1024.8
20260502031409 0 100 9.7 12.9 0.00 0.00 0.00 77 1024.6
20260502030907 0 100 6.4 11.3 0.00 0.00 0.00 78 1024.5
20260502030404 0 77 9.7 12.9 0.00 0.00 0.00 77 1024.8
20260502025903 0 154 8.0 9.7 0.00 0.00 0.00 78 1024.5
20260502025359 0 81 6.4 8.0 0.00 0.00 0.00 77 1024.4
20260502024857 1 166 4.8 8.0 0.00 0.00 0.00 77 1024.5
20260502024355 1 86 8.0 14.5 0.00 0.00 0.00 76 1024.4
20260502023852 1 111 8.0 19.3 0.00 0.00 0.00 76 1024.2
20260502023350 1 99 11.3 12.9 0.00 0.00 0.00 76 1024.0
20260502022847 1 106 6.4 11.3 0.00 0.00 0.00 75 1024.1
20260502022343 1 85 8.0 12.9 0.00 0.00 0.00 75 1024.0
20260502021840 1 67 8.0 12.9 0.00 0.00 0.00 76 1024.1
20260502021338 1 73 9.7 14.5 0.00 0.00 0.00 76 1024.0
20260502020835 1 56 9.7 11.3 0.00 0.00 0.00 74 1023.8
20260502020333 1 88 6.4 12.9 0.00 0.00 0.00 72 1024.0
20260502015829 1 99 8.0 14.5 0.00 0.00 0.00 71 1024.0
20260502015327 1 100 6.4 9.7 0.00 0.00 0.00 70 1024.0
20260502014824 1 103 4.8 9.7 0.00 0.00 0.00 69 1024.0
20260502014321 1 92 6.4 8.0 0.00 0.00 0.00 69 1024.0
20260502013817 1 114 4.8 9.7 0.00 0.00 0.00 69 1023.8
20260502013313 1 106 8.0 11.3 0.00 0.00 0.00 70 1023.7
20260502012809 1 59 6.4 8.0 0.00 0.00 0.00 69 1023.7
20260502012307 2 109 3.2 6.4 0.00 0.00 0.00 68 1023.7
20260502011804 2 160 3.2 8.0 0.00 0.00 0.00 69 1023.7
20260502011300 2 209 6.4 8.0 0.00 0.00 0.00 69 1023.6
20260502010758 1 207 6.4 12.9 0.00 0.00 0.00 70 1023.7
20260502010254 1 229 8.0 14.5 0.00 0.00 0.00 70 1023.4
20260502005751 2 187 4.8 14.5 0.00 0.00 0.00 70 1023.4
20260502005249 2 206 6.4 16.1 0.00 0.00 0.00 69 1023.6
20260502004745 2 124 4.8 9.7 0.00 0.00 0.00 68 1023.7
20260502004242 1 95 6.4 20.9 0.00 0.00 0.00 70 1023.7
20260502003740 1 157 6.4 24.1 0.00 0.00 0.00 71 1023.6
20260502003237 1 141 9.7 19.3 0.00 0.00 0.00 68 1023.4
20260502002732 1 150 8.0 30.6 0.00 0.00 0.00 71 1023.4
20260502002230 1 146 9.7 29.0 0.00 0.00 0.00 72 1023.8
20260502001727 1 120 12.9 33.8 0.00 0.00 0.00 74 1023.8
20260502001225 1 124 24.1 33.8 0.00 0.00 0.00 71 1023.3
20260502000723 2 116 32.2 32.2 0.00 0.00 0.00 65 1023.4
20260502000220 2 133 9.7 32.2 0.00 0.00 0.00 68 1023.2
20260501235716 2 109 22.5 35.4 0.00 0.00 0.00 67 1023.4
20260501235212 3 99 33.8 35.4 0.00 0.00 0.00 63 1023.2
20260501234708 3 105 22.5 33.8 0.00 0.00 0.00 60 1023.0
20260501234205 3 88 14.5 29.0 0.00 0.00 0.00 60 1023.2
20260501233703 3 117 14.5 35.4 0.00 0.00 0.00 59 1022.9
20260501233200 4 92 20.9 29.0 0.00 0.00 0.00 54 1023.0
20260501232655 6 163 4.8 14.5 0.00 0.00 0.00 51 1022.8
20260501232153 6 152 0.0 6.4 0.00 0.00 0.00 48 1022.5
20260501231651 6 243 8.0 17.7 0.00 0.00 0.00 47 1022.5
20260501231149 6 288 6.4 20.9 0.00 0.00 0.00 53 1022.4
20260501230647 6 245 17.7 22.5 0.00 0.00 0.00 54 1022.5
20260501230145 7 214 12.9 35.4 0.00 0.00 0.00 53 1022.4
20260501225642 7 232 9.7 20.9 0.00 0.00 0.00 55 1022.5
20260501225138 6 235 11.3 17.7 0.00 0.00 0.00 60 1022.2
20260501224635 6 231 27.4 29.0 0.00 0.00 0.00 59 1022.4
20260501224133 5 233 16.1 32.2 0.00 0.00 0.00 61 1022.5
20260501223629 4 221 11.3 25.7 0.00 0.00 0.00 69 1022.8
20260501223126 3 241 8.0 19.3 0.00 0.00 0.00 74 1022.8
20260501222621 2 258 6.4 17.7 0.00 0.00 0.00 83 1022.9
20260501222119 2 256 11.3 22.5 0.00 0.00 0.00 84 1023.2
20260501221615 2 254 8.0 19.3 0.00 0.00 0.00 81 1023.4
20260501221113 2 301 9.7 27.4 0.00 0.00 0.00 74 1023.2
20260501220611 3 335 11.3 24.1 0.00 0.00 0.00 68 1023.0
20260501220108 3 264 9.7 20.9 0.00 0.00 0.00 67 1023.3
20260501215604 5 30 0.0 16.1 0.00 0.00 0.00 64 1023.3
20260501215059 5 257 8.0 32.2 0.00 0.00 0.00 61 1023.3
20260501214554 4 260 20.9 25.7 0.00 0.00 0.00 62 1022.9
20260501214050 4 320 8.0 24.1 0.00 0.00 0.00 60 1023.2
20260501213547 5 348 20.9 29.0 0.00 0.00 0.00 57 1022.9
20260501213044 4 343 14.5 35.4 0.00 0.00 0.00 57 1022.9
20260501212540 5 43 9.7 16.1 0.00 0.00 0.00 56 1023.0
20260501212037 5 283 0.0 16.1 0.00 0.00 0.00 53 1022.9
20260501211534 6 279 6.4 17.7 0.00 0.00 0.00 53 1022.8
20260501211032 5 225 37.0 51.5 0.00 0.00 0.00 54 1022.4
20260501210527 5 217 14.5 37.0 0.00 0.00 0.00 52 1022.1
20260501210025 7 228 22.5 29.0 0.00 0.00 0.00 50 1022.5
20260501205521 6 214 17.7 32.2 0.00 0.00 0.00 51 1022.6
20260501205019 6 189 27.4 38.6 0.00 0.00 0.00 50 1022.4
20260501204515 5 218 8.0 32.2 0.00 0.00 0.00 54 1022.4
20260501204011 4 213 14.5 33.8 0.00 0.00 0.00 56 1022.5
20260501203508 4 208 24.1 25.7 0.00 0.00 0.00 57 1022.5
20260501203006 4 215 20.9 27.4 0.00 0.00 0.00 56 1022.4
20260501202502 3 224 22.5 33.8 0.00 0.00 0.00 59 1022.1
20260501201958 3 204 17.7 37.0 0.00 0.00 0.00 62 1022.2
20260501201456 3 217 32.2 40.2 0.00 0.00 0.00 63 1022.2
20260501200952 2 220 37.0 43.5 0.00 0.00 0.00 64 1022.1
20260501200445 2 226 12.9 38.6 0.00 0.00 0.00 67 1022.0
20260501195941 2 224 19.3 41.8 0.00 0.00 0.00 66 1022.1
20260501195438 2 216 25.7 41.8 0.00 0.00 0.00 65 1021.8
20260501194933 3 212 38.6 49.9 0.00 0.00 0.00 58 1021.6
20260501194429 3 215 12.9 48.3 0.00 0.00 0.00 53 1021.7
20260501193925 3 222 12.9 32.2 0.00 0.00 0.00 49 1022.0
20260501193424 4 215 17.7 27.4 0.00 0.00 0.00 48 1021.8
20260501192921 4 197 17.7 37.0 0.00 0.00 0.00 47 1022.0
20260501192418 6 222 6.4 19.3 0.00 0.00 0.00 36 1022.0
20260501191915 6 350 8.0 12.9 0.00 0.00 0.00 37 1021.6
20260501191413 6 326 6.4 17.7 0.00 0.00 0.00 37 1021.4
20260501190910 6 4 4.8 12.9 0.00 0.00 0.00 37 1021.6
20260501190406 6 268 11.3 17.7 0.00 0.00 0.00 36 1021.3
20260501185900 6 345 6.4 20.9 0.00 0.00 0.00 35 1021.4
20260501185357 6 304 11.3 27.4 0.00 0.00 0.00 36 1021.6
20260501184853 6 0 12.9 29.0 0.00 0.00 0.00 36 1021.6
20260501184349 6 343 11.3 22.5 0.00 0.00 0.00 38 1021.6
20260501183844 7 320 16.1 41.8 0.00 0.00 0.00 33 1021.7
20260501183342 7 358 20.9 32.2 0.00 0.00 0.00 32 1021.7
20260501182838 8 9 27.4 37.0 0.00 0.00 0.00 31 1021.6
20260501182335 10 15 22.5 33.8 0.00 0.00 0.00 28 1021.6
20260501181832 8 312 11.3 25.7 0.00 0.00 0.00 31 1022.0
20260501181329 7 345 6.4 20.9 0.00 0.00 0.00 34 1021.4
20260501180826 8 345 16.1 29.0 0.00 0.00 0.00 31 1021.7
20260501180322 8 323 12.9 29.0 0.00 0.00 0.00 34 1021.7